Location: Baia Mare
(47.6567°N, 23.5850°E)
Time: 10:40:04
(UTC+03:00)

ISS - Pass Details

Date: 30 May 2018
Orbit: 402 x 406 km, 51.6° (Epoch: 20 June)

Event Time Altitude Azimuth Distance (km) Brightness Sun altitude
Rises 00:19:41 0° 293° (WNW) 2,323 0.6 -19.2°
Reaches altitude 10° 00:21:46 10° 293° (WNW) 1,461 -0.5 -19.3°
Enters shadow 00:24:55 78° 246° (WSW) 416 -3.9 -19.4°
